Torna al catalogo

PRAETORIAN SDA_505

AttivoPO
NORAD 100063·PAYLOAD·🇺🇸 United States

Lanciato Jul 16, 2026 da Vandenberg Space Force Base

Loading…

Prossimi Passaggi (prossime 24 ore)

TLE

AggiornatoSource: Space-Track

Epoca: Sep 14, 2026, 09:22 UTC

1 A0063U 26163E   26257.39070147  .00000105  00000-0  80318-4 0  9990
2 A0063  81.4775 255.5101 0016210  55.1787 305.0893 13.85841174  8250

Traccia PRAETORIAN SDA_505 in tempo reale con AllMySat

Download on the App Store